Regional Weather Roundup
Issued by NWS Jackson, KY

Home | Current Version | Previous Version | Text Only | Print | Product List | Glossary Off
Versions: 1 2 3 4 5 6 7 8 9 10 11 12 13 14 15 16 17 18 19 20 21 22 23 24 25 26 27 28 29 30 31 32 33 34 35 36 37 38 39 40 41 42 43 44 45 46 47 48 49 50

000
ASUS43 KJKL 191910
RWRJKL

EAST KENTUCKY HOURLY WEATHER ROUNDUP
NATIONAL WEATHER SERVICE JACKSON KY
200 PM EST SUN NOV 19 2017

NOTE: "FAIR" INDICATES FEW OR NO CLOUDS BELOW 12,000 FEET WITH
NO SIGNIFICANT WEATHER AND/OR OBSTRUCTIONS TO VISIBILITY.

* THESE REPORTS ARE NOT UNDER NWS QUALITY CONTROL AND MAY NOT
  REPORT WEATHER SUCH AS PRECIPITATION AND FOG.

KYZ079-080-083-085-087-088-110-112-115-119-120-192000
...EASTERN KENTUCKY...

CITY           SKY/WX    TMP DP  RH WIND       PRES   REMARKS
JACKSON        CLOUDY    39  31  72 W7        30.01F WCI  34
LONDON         CLOUDY    40  29  64 W14G22    30.05S WCI  32
SOMERSET*      CLOUDY    39  32  75 W10G17    30.09F WCI  32
MONTICELLO*    CLOUDY    41  31  67 W20G25    30.10F
WILLIAMSBURG*  CLOUDY    41  32  70 NW6       30.07S
MIDDLESBORO*   CLOUDY    43  32  65 NW8       30.06F
HARLAN APT*    CLOUDY    39  30  70 SW7       30.03S WCI  34
PIKE CO APT*   CLOUDY    38  29  71 W7        30.00F WCI  32
BIG SANDY APT* CLOUDY    40  29  64 W5        30.00F
MOREHEAD APT*  CLOUDY    39  28  65 W10G17    30.03S WCI  32
$$

KYZ035-036-041-042-044-050-067-078-099-192000
...CENTRAL KENTUCKY...

CITY           SKY/WX    TMP DP  RH WIND       PRES   REMARKS
MT STERLING*   CLOUDY    37  32  81 NW13      30.05S WCI  29
FLEMING/MASON* CLOUDY    37  29  72 W18G29    30.02S WCI  27
DANVILLE*      CLOUDY    36  30  80 W9G17     30.08S WCI  29
LEXINGTON      CLOUDY    38  31  76 W10G21    30.05S WCI  31
FRANKFORT      CLOUDY    38  28  67 W8G20     30.05F WCI  32
LOUISVILLE     PTSUNNY   40  28  62 W13       30.09F WCI  32
LEBANON*       CLOUDY    37  28  70 W12G20    30.09S WCI  30
GLASGOW*       MOSUNNY   42  29  61 W10       30.11F
BOWLING GREEN  SUNNY     43  27  53 W12       30.14F
$$

KYZ091>093-OHZ055-061-077-WVZ005-015-034-035-042-192000
...SOUTHERN OHIO/WEST VIRGINIA...

CITY           SKY/WX    TMP DP  RH WIND       PRES   REMARKS
COVINGTON      CLOUDY    37  27  67 W16G22    30.02S WCI  28
COLUMBUS       CLOUDY    41  31  67 W20G26    29.92S
DAYTON         CLOUDY    35  27  72 W20G26    29.98S WCI  24
WILMINGTON     CLOUDY    36  30  79 W15G26    29.97S WCI  27
HUNTINGTON     CLOUDY    41  28  60 SW8       29.98S
CHARLESTON     CLOUDY    41  28  60 SW14G20   29.96R
PINEVILLE*     CLOUDY    38  29  69 MISG      30.00S
BECKLEY        CLOUDY    33  26  75 NW12      29.91R WCI  24
BLUEFIELD      CLOUDY    31  24  75 W10G22    29.91S WCI  22
LOGAN CO APT*  CLOUDY    37  28  70 W12       29.97R WCI  30
$$

VAZ002-007-008-TNZ017-027-036-066-071-192000
...SOUTHWEST VIRGINIA/EAST TENNESSEE...

CITY           SKY/WX    TMP DP  RH WIND       PRES   REMARKS
WISE*          CLOUDY    34  32  93 W8        29.98S WCI  27
JONESVILLE*    CLOUDY    41  28  60 W6        30.05F
ABINGDON*      CLOUDY    41  30  64 NW10G20   29.97R
BRISTOL        CLOUDY    42  30  62 W16       30.01R
MORRISTOWN*    CLOUDY    43  28  56 NW7G14    30.04S
SEVIERVILLE*   CLOUDY    46  30  53 NW12      30.05S
KNOXVILLE      PTSUNNY   46  31  55 W14       30.05F
LAFOLLETTE*    CLOUDY    43  30  61 CALM      30.09S
OAK RIDGE      PTSUNNY   48  31  51 VRB5      30.07F
CROSSVILLE     PTSUNNY   40  28  62 NW12      30.06F WCI  33
NASHVILLE      MOSUNNY   48  20  32 W10G17    30.15F
$$

...KEY TO REMARKS...
VSB - VISIBILITY IN MILES
WCI - WIND CHILL INDEX
HX  - HEAT INDEX

$$



USA.gov is the U.S. government's official web portal to all federal, state and local government web resources and services.